CST,Max TemperatureF,Mean TemperatureF,Min TemperatureF,Max Dew PointF,MeanDew PointF,Min DewpointF,Max Humidity, Mean Humidity, Min Humidity, Max Sea Level PressureIn, Mean Sea Level PressureIn, Min Sea Level PressureIn, Max VisibilityMiles, Mean VisibilityMiles, Min VisibilityMiles, Max Wind SpeedMPH, Mean Wind SpeedMPH, Max Gust SpeedMPH,PrecipitationIn, CloudCover, Events, WindDirDegrees
2012-11-1,86,68,51,66,56,50,94,72,33,30.08,30.03,29.97,10,8,0,8,1,,0.00,2,Fog,240
2012-11-2,86,70,55,68,60,54,100,78,33,30.08,30.02,29.97,10,6,0,14,1,17,0.00,4,Fog,196
2012-11-3,86,72,59,68,61,57,100,84,43,30.12,30.06,30.01,10,6,0,20,2,28,0.33,5,Fog-Rain-Thunderstorm,202
2012-11-4,80,68,57,63,59,55,94,79,42,30.13,30.07,30.02,10,8,0,6,1,,0.00,3,Fog,32
2012-11-5,82,68,55,68,60,52,100,81,45,30.07,30.02,29.93,10,7,0,10,1,,0.05,5,Fog-Rain-Thunderstorm,318
2012-11-6,71,58,44,52,43,36,94,66,27,30.16,30.10,30.04,10,10,10,10,3,20,0.00,0,,353
2012-11-7,78,60,42,48,42,30,93,64,18,30.18,30.13,30.09,10,10,10,7,1,,0.00,0,,353
2012-11-8,78,60,42,55,49,41,94,71,36,30.22,30.15,30.10,10,10,10,14,3,22,0.00,0,,155
2012-11-9,80,66,51,61,55,50,100,73,37,30.16,30.11,30.07,10,10,2,18,3,26,0.00,1,,159
2012-11-10,82,68,55,63,58,54,94,71,37,30.12,30.05,29.97,10,8,0,17,4,28,0.00,3,Fog,161
2012-11-11,82,70,57,68,64,52,88,72,51,30.17,29.98,29.92,10,10,7,20,9,26,0.00,7,Rain,170
2012-11-12,64,53,41,52,40,28,94,63,26,30.46,30.35,30.17,10,10,5,12,6,21,0.07,3,Rain,12
2012-11-13,60,48,35,41,33,27,87,63,29,30.51,30.42,30.33,10,10,10,7,2,,0.00,1,Rain,31
2012-11-14,64,50,35,41,34,30,93,61,28,30.42,30.35,30.29,10,10,10,8,1,,0.03,3,,2
2012-11-15,66,49,32,37,33,28,100,67,24,30.35,30.29,30.22,10,10,10,6,1,,0.00,0,,45
2012-11-16,66,50,33,39,34,32,93,64,28,30.39,30.33,30.28,10,10,10,8,2,,0.00,0,,30
2012-11-17,69,50,32,37,34,32,100,68,25,30.41,30.34,30.29,10,10,5,6,0,,0.00,0,,58
2012-11-18,73,53,33,41,36,32,93,65,22,30.35,30.29,30.23,10,10,5,8,0,,0.00,0,,157
2012-11-19,75,56,37,46,41,36,100,68,25,30.29,30.23,30.16,10,9,0,6,0,,0.00,0,Fog,188
2012-11-20,77,62,46,59,52,45,100,76,44,30.24,30.19,30.13,10,7,0,6,0,,0.00,3,Fog-Rain,250
2012-11-21,80,62,44,59,47,41,94,70,28,30.28,30.21,30.16,10,9,0,8,1,,0.00,1,Fog,354
2012-11-22,77,60,44,59,49,43,94,74,39,30.23,30.17,30.11,10,9,0,15,2,20,0.00,1,Fog,176
2012-11-23,73,62,51,59,53,39,94,76,58,30.36,30.25,30.17,10,9,3,10,2,18,0.00,7,,360
2012-11-24,62,48,33,36,31,28,93,55,27,30.41,30.31,30.20,10,10,10,9,4,,0.00,0,,10
2012-11-25,75,54,32,55,44,32,100,75,38,30.19,30.08,30.00,10,10,2,18,2,18,0.00,1,,170
2012-11-26,82,68,55,64,60,54,100,77,45,30.11,30.00,29.94,10,7,0,17,4,28,0.12,6,Fog-Rain,208
2012-11-27,60,50,39,55,47,37,94,80,59,30.36,30.26,30.05,10,9,0,17,6,23,0.01,5,Fog-Rain,347
2012-11-28,66,50,33,41,35,32,100,72,28,30.48,30.38,30.31,10,8,1,5,0,,0.00,0,,49
2012-11-29,69,50,32,50,43,32,100,79,49,30.32,30.26,30.18,10,9,3,7,1,,0.00,0,,161
2012-11-30,75,60,46,61,57,45,94,83,61,30.22,30.17,30.12,10,7,1,13,2,18,0.00,7,,149